Wind_Speed
6 10 11 8 7 11 15 17 19 19 18 21 23 25 23 22 24 24 24 23 21 16 16 24 28 37 41 40 26 23 23 23 24 25 27 28 29 29 31 36 43 44 40 41
11 14 9 10 12 16 16 18 20 22 19 21 23 29 29 27 25 24 20 18 17 16 20 24 29 35 29 26 31 24 19 21 23 22 24 26 28 27 24 24 27 35 34 46
14 15 18 11 13 16 17 20 23 22 23 24 26 33 27 22 22 19 17 17 15 15 13 19 25 25 22 22 29 37 37 27 25 24 26 28 27 27 27 24 30 30 36 35
13 11 11 13 15 17 20 15 18 22 24 28 21 31 31 24 24 17 17 15 16 17 17 18 16 22 23 25 24 30 37 41 27 26 25 27 31 30 29 27 27 37 41 43
18 16 16 14 14 14 17 18 20 22 26 29 28 23 31 27 10 16 18 15 15 14 14 20 23 24 23 23 18 18 24 35 34 31 26 27 26 31 34 31 29 30 34 39
17 15 15 13 10 14 16 17 22 26 28 23 29 23 29 18 22 27 21 16 15 15 19 20 20 20 23 33 26 29 25 25 38 31 30 28 27 30 30 35 33 29 30 35
19 10 5 11 9 11 12 19 18 9 11 13 24 31 27 28 29 20 9 10 16 16 15 16 23 23 20 26 30 30 27 26 41 47 38 30 31 32 33 32 34 38 29 27
12 9 11 7 12 18 18 18 16 16 13 20 26 20 26 16 17 16 14 12 12 17 22 22 21 21 29 23 14 16 27 38 48 49 35 31 32 32 34 33 32 32 40 36
13 8 16 18 17 12 14 16 18 16 23 24 26 26 22 17 9 9 17 19 16 20 19 24 33 28 41 35 24 24 29 37 45 45 38 35 33 33 32 32 34 37 34 43
8 24 15 10 12 18 19 20 17 18 7 16 23 29 30 22 29 29 28 17 22 22 31 36 33 41 40 45 35 28 25 28 36 46 46 36 33 33 34 33 32 34 37 36
15 16 21 18 18 23 25 20 21 26 23 11 13 21 26 37 42 37 36 26 25 31 42 39 38 32 29 28 21 38 38 40 47 52 47 38 36 35 35 35 34 34 35 36
13 13 19 22 25 16 13 16 19 12 18 30 29 39 35 32 34 30 29 30 41 29 28 23 18 27 25 26 29 36 38 35 44 47 44 38 37 36 35 36 36 35 35 34
12 7 16 14 5 16 20 25 32 32 31 32 25 29 39 28 19 24 24 21 23 24 27 24 21 23 24 25 30 34 42 45 46 47 43 40 39 38 37 36 36 35 33 33
21 13 13 19 26 29 30 31 32 35 29 32 30 29 26 24 25 23 25 25 28 19 23 26 28 31 35 34 36 30 36 46 50 48 48 45 41 39 38 36 35 34 34 34
12 15 17 23 27 30 32 34 33 27 29 27 27 27 28 27 27 27 26 31 35 37 35 35 37 41 42 34 40 47 47 53 54 54 47 44 41 39 37 35 34 34 32 33
13 22 24 30 28 27 30 32 23 19 16 17 21 26 26 33 34 29 28 36 49 53 51 48 39 44 49 48 49 51 53 51 51 47 45 42 40 36 35 34 31 29 28 27
17 16 22 33 28 29 31 15 18 18 18 19 25 30 40 40 30 33 38 46 50 46 48 45 49 56 57 55 50 49 48 48 47 45 42 39 38 35 32 31 28 24 23 21
15 13 21 27 27 15 11 16 18 12 17 22 28 37 29 36 43 43 47 42 46 51 57 54 55 52 52 51 49 46 44 44 43 41 38 38 36 34 30 25 23 18 14 17
11 13 23 18 20 25 17 17 21 23 29 25 24 32 42 41 46 52 40 55 60 53 52 52 49 50 49 47 45 46 45 43 42 39 35 32 31 29 24 19 18 13 15 20
12 16 19 23 26 13 24 19 18 25 24 11 39 41 46 46 47 61 63 70 54 48 50 51 50 49 46 43 41 39 37 34 31 29 28 27 23 21 15 15 13 16 14 19
21 22 24 24 25 15 6 27 34 16 28 44 42 43 44 44 54 63 70 61 52 50 48 48 44 42 38 33 29 25 22 22 24 24 22 16 14 12 13 15 17 9 13 14
21 15 22 13 18 9 28 40 29 35 43 40 43 44 46 58 65 67 59 54 51 49 45 41 38 32 26 21 18 17 18 16 18 13 9 11 12 11 13 15 18 13 14 10
11 15 16 15 18 27 23 28 33 36 38 40 42 46 54 67 65 57 54 52 50 42 36 29 27 23 17 16 17 16 13 13 6 7 12 11 11 10 13 12 15 17 14 10
19 16 20 23 16 26 25 31 33 36 36 41 44 50 63 63 56 51 50 47 39 32 27 23 20 20 20 18 17 15 11 8 7 8 12 12 9 10 12 17 17 20 15 11
22 18 20 18 19 28 30 33 35 34 37 44 46 59 59 52 47 47 46 37 32 28 23 22 21 21 22 20 17 17 14 11 8 10 13 14 14 13 12 17 20 16 14 12
13 17 19 26 26 30 35 35 35 38 42 40 56 59 48 44 44 44 36 33 29 25 24 22 22 26 25 20 17 13 13 17 15 13 14 14 15 13 15 18 21 16 13 11
Wind_Direction
294 313 309 324 324 313 303 299 295 294 296 286 282 284 286 282 281 275 268 268 269 256 243 249 255 261 269 280 284 287 292 293 293 291 286 279 277 275 269 263 250 249 241 241
297 276 338 292 295 302 294 291 290 293 294 294 288 284 288 284 279 275 263 255 256 259 250 251 261 269 279 293 297 291 290 296 296 296 292 285 281 276 277 263 259 250 248 247
299 291 302 300 302 296 291 292 295 295 299 293 294 289 291 291 277 274 252 244 252 244 251 254 258 263 277 272 290 304 310 294 290 291 289 287 284 282 281 271 241 233 235 248
292 310 290 295 295 300 293 302 306 296 299 294 301 296 294 287 275 267 243 252 259 270 260 242 258 265 263 273 275 297 302 305 307 291 288 290 284 282 278 279 267 244 240 244
292 289 296 283 293 305 288 298 296 295 290 290 287 274 288 298 268 286 264 258 265 254 267 270 261 256 262 256 267 285 280 289 299 303 286 289 288 282 274 275 272 263 253 251
293 290 276 268 287 300 289 303 302 293 286 272 277 272 282 295 300 297 286 275 266 272 275 264 258 239 243 270 241 267 260 281 294 298 296 291 285 283 285 271 272 268 260 253
319 306 232 303 311 311 299 310 313 305 318 295 309 316 307 312 308 303 300 280 274 290 284 258 262 270 280 267 258 270 275 280 294 296 290 285 289 282 282 283 274 266 260 262
320 306 359 344 306 306 298 292 279 293 302 304 304 293 298 313 305 305 322 312 301 254 249 254 251 251 253 270 274 266 274 286 291 291 290 285 289 285 278 277 277 280 260 263
316 284 297 308 300 291 300 284 281 298 288 286 289 289 288 331 12 337 308 291 277 314 270 271 262 268 287 273 306 279 293 292 296 293 300 291 284 282 278 277 273 271 274 260
298 302 304 316 297 291 275 276 277 273 289 275 285 299 293 305 335 334 338 306 298 302 276 272 279 270 290 284 292 297 286 288 288 289 296 286 285 279 279 279 278 271 270 270
310 284 289 299 295 297 301 292 273 279 276 287 295 284 298 308 317 319 311 314 308 293 288 292 306 292 311 297 301 286 283 279 279 283 288 287 285 280 280 280 280 277 271 266
306 284 293 295 302 292 279 289 288 320 293 285 292 281 301 307 305 310 312 308 297 321 314 310 302 315 314 311 284 287 285 280 278 284 289 288 290 286 282 281 280 279 273 260
294 292 313 318 317 337 305 299 296 295 295 277 286 295 303 309 327 325 331 317 317 317 313 317 304 297 295 292 297 287 282 278 279 282 293 293 289 288 284 280 280 278 271 261
298 288 271 281 295 307 304 298 296 292 293 298 292 304 315 321 325 327 331 324 322 300 307 304 300 298 287 280 283 274 272 275 286 295 295 288 287 285 282 280 279 276 271 265
283 280 288 292 297 300 300 303 304 317 310 316 318 319 323 322 323 323 313 297 297 299 303 300 302 297 296 282 271 274 275 278 286 289 287 285 284 282 281 278 277 275 269 264
282 287 297 295 299 304 302 307 316 317 315 319 320 319 314 299 302 313 302 300 308 308 306 307 297 288 289 288 287 282 280 284 285 286 284 283 281 279 277 278 278 272 266 258
288 297 305 298 305 306 305 321 321 312 317 328 321 317 304 308 313 312 306 305 309 306 306 298 298 300 297 297 295 291 288 287 285 283 283 281 277 274 274 276 271 265 257 258
275 292 304 302 307 301 341 308 318 318 312 316 302 311 325 319 307 305 313 317 307 302 305 302 303 301 300 298 295 293 291 290 288 286 282 277 272 271 270 267 261 252 253 237
284 287 295 294 300 298 324 347 338 327 316 305 317 318 317 317 316 315 319 316 314 307 304 303 302 302 300 297 296 295 293 292 290 288 282 272 263 261 263 252 234 235 213 230
302 288 288 298 289 306 318 327 331 335 306 309 316 320 320 322 317 318 316 317 311 306 306 306 306 302 299 297 294 291 291 290 290 284 272 260 249 251 236 231 216 194 276 216
311 307 296 302 306 300 311 342 328 344 312 322 321 321 318 316 314 315 315 315 313 311 311 308 307 306 304 301 298 297 299 299 288 280 266 240 226 221 218 217 186 233 232 214
304 298 299 305 306 306 327 312 330 319 314 316 319 320 318 318 317 315 315 317 317 316 315 314 310 309 309 305 301 306 310 302 288 273 210 195 194 217 209 184 181 222 199 200
319 312 300 296 292 307 310 316 310 314 316 323 324 323 318 318 317 319 320 321 321 322 319 317 314 318 317 305 301 305 314 301 269 210 190 173 195 194 178 168 214 190 197 194
305 305 294 297 305 309 311 313 312 324 325 327 322 315 320 320 321 322 323 326 329 331 330 325 324 319 316 306 298 295 293 275 248 206 178 188 174 155 171 196 201 192 192 205
297 299 302 308 310 306 320 326 328 329 324 317 315 321 322 322 325 326 329 334 336 339 338 329 322 323 320 309 288 272 270 244 219 196 192 187 178 178 191 199 187 196 198 211
305 308 315 319 318 318 322 334 337 323 322 318 321 323 326 328 329 330 334 338 338 337 336 333 323 311 313 306 296 287 260 230 219 197 198 203 199 194 194 197 190 199 207 219
Height
3170 3169 3165 3163 3163 3164 3163 3161 3158 3156 3155 3153 3150 3147 3146 3146 3144 3142 3142 3142 3142 3140 3140 3135 3131 3128 3126 3125 3126 3125 3123 3123 3122 3121 3120 3119 3119 3120 3120 3122 3125 3128 3134 3132
3168 3165 3165 3163 3163 3162 3160 3158 3155 3153 3151 3149 3145 3141 3141 3139 3136 3134 3134 3135 3134 3135 3133 3129 3126 3124 3123 3119 3116 3117 3117 3116 3115 3115 3114 3113 3112 3112 3113 3114 3116 3118 3121 3124
3166 3164 3162 3160 3160 3159 3157 3155 3151 3149 3147 3145 3142 3134 3133 3132 3130 3129 3127 3128 3130 3130 3129 3127 3122 3120 3119 3116 3112 3110 3110 3111 3109 3109 3107 3107 3106 3106 3105 3107 3107 3107 3106 3110
3163 3161 3160 3159 3158 3157 3153 3152 3148 3147 3145 3140 3142 3129 3129 3125 3122 3123 3121 3123 3124 3124 3122 3124 3120 3117 3114 3112 3109 3108 3102 3101 3103 3103 3101 3100 3099 3099 3099 3099 3100 3101 3102 3100
3160 3158 3157 3156 3156 3153 3152 3149 3147 3144 3141 3137 3134 3132 3120 3120 3119 3122 3120 3119 3120 3121 3120 3118 3116 3116 3113 3109 3107 3106 3101 3097 3096 3097 3095 3094 3093 3092 3092 3092 3092 3093 3094 3095
3156 3155 3154 3152 3152 3151 3149 3146 3144 3139 3135 3128 3124 3123 3118 3117 3117 3116 3117 3115 3115 3116 3117 3116 3114 3113 3109 3100 3098 3093 3091 3092 3090 3091 3089 3087 3086 3085 3084 3085 3084 3085 3085 3086
3155 3152 3151 3150 3150 3150 3147 3145 3140 3135 3133 3127 3122 3118 3115 3114 3115 3111 3109 3109 3109 3111 3114 3110 3109 3108 3107 3099 3091 3087 3087 3084 3085 3085 3083 3080 3078 3077 3077 3077 3076 3077 3077 3078
3153 3153 3151 3151 3151 3148 3147 3145 3143 3134 3131 3124 3125 3120 3115 3112 3108 3107 3107 3104 3106 3104 3098 3098 3099 3097 3089 3089 3081 3081 3082 3079 3078 3076 3075 3073 3071 3069 3068 3068 3068 3068 3068 3070
3154 3151 3147 3148 3147 3146 3143 3141 3140 3135 3132 3126 3120 3116 3112 3108 3105 3105 3102 3102 3098 3098 3095 3093 3093 3089 3086 3087 3075 3078 3074 3073 3070 3065 3066 3064 3063 3060 3059 3060 3060 3060 3060 3060
3154 3149 3148 3146 3145 3143 3140 3137 3136 3134 3130 3120 3112 3111 3109 3107 3104 3102 3099 3098 3097 3093 3090 3089 3086 3083 3078 3075 3077 3075 3068 3065 3063 3059 3056 3055 3053 3051 3049 3049 3050 3050 3050 3050
3152 3149 3144 3143 3140 3136 3135 3132 3130 3127 3124 3117 3112 3103 3109 3102 3099 3099 3095 3092 3089 3088 3080 3077 3077 3075 3070 3069 3062 3069 3064 3062 3056 3052 3048 3045 3043 3041 3040 3039 3040 3040 3039 3039
3150 3145 3141 3139 3131 3132 3132 3130 3128 3124 3124 3118 3114 3095 3109 3103 3098 3094 3088 3083 3082 3080 3074 3071 3071 3068 3068 3063 3063 3057 3053 3048 3046 3042 3037 3035 3033 3031 3030 3029 3029 3028 3027 3028
3146 3143 3138 3134 3132 3131 3129 3127 3125 3120 3114 3106 3107 3095 3099 3098 3090 3089 3085 3081 3077 3076 3070 3071 3069 3063 3062 3057 3053 3048 3043 3039 3033 3029 3027 3025 3022 3021 3020 3019 3018 3017 3017 3018
3142 3141 3140 3138 3132 3129 3125 3121 3118 3114 3106 3103 3101 3098 3095 3091 3086 3084 3080 3073 3070 3068 3067 3064 3059 3055 3050 3048 3042 3034 3029 3025 3022 3020 3017 3013 3011 3010 3009 3007 3007 3006 3007 3007
3139 3137 3136 3132 3128 3124 3119 3114 3110 3105 3103 3099 3095 3094 3092 3087 3082 3077 3075 3069 3063 3060 3056 3052 3048 3042 3036 3033 3027 3021 3016 3012 3011 3008 3004 3001 2999 2998 2997 2997 2997 2996 2996 2996
3138 3133 3131 3127 3123 3119 3112 3109 3104 3103 3100 3097 3094 3090 3087 3080 3075 3072 3067 3060 3055 3050 3044 3038 3034 3027 3021 3017 3012 3007 3003 3000 2996 2993 2991 2989 2987 2988 2986 2986 2987 2986 2987 2988
3134 3132 3129 3120 3119 3113 3108 3105 3103 3100 3098 3095 3090 3085 3076 3072 3068 3066 3060 3054 3046 3038 3031 3024 3018 3012 3006 2999 2994 2989 2987 2983 2981 2979 2978 2977 2976 2976 2977 2977 2977 2978 2980 2983
3130 3129 3126 3119 3114 3110 3106 3101 3098 3096 3095 3092 3084 3078 3073 3069 3062 3058 3053 3045 3037 3028 3019 3011 3004 2997 2990 2984 2980 2975 2972 2969 2967 2965 2965 2964 2964 2965 2967 2968 2969 2972 2976 2979
3126 3125 3121 3118 3112 3107 3103 3097 3095 3091 3086 3084 3078 3073 3068 3060 3051 3047 3044 3035 3024 3013 3005 2998 2991 2983 2976 2971 2967 2962 2959 2956 2953 2953 2952 2952 2953 2956 2958 2961 2964 2968 2973 2975
3125 3121 3119 3114 3110 3103 3100 3095 3092 3088 3083 3080 3076 3067 3059 3051 3041 3032 3027 3020 3009 3001 2993 2984 2977 2970 2963 2959 2954 2950 2948 2945 2943 2941 2940 2941 2945 2948 2952 2957 2961 2966 2970 2973
3121 3118 3115 3109 3106 3104 3096 3092 3086 3086 3084 3074 3068 3061 3053 3046 3040 3024 3015 3005 2997 2988 2979 2972 2963 2956 2951 2947 2943 2941 2939 2937 2934 2932 2932 2935 2940 2945 2950 2954 2958 2965 2967 2972
3119 3115 3112 3108 3105 3099 3096 3089 3089 3083 3075 3069 3061 3054 3045 3037 3026 3015 3003 2992 2983 2974 2966 2960 2951 2946 2943 2940 2937 2936 2933 2931 2928 2929 2931 2935 2940 2944 2948 2952 2957 2962 2967 2971
3115 3115 3110 3110 3103 3100 3094 3090 3085 3078 3070 3063 3055 3047 3038 3027 3014 3002 2991 2982 2972 2964 2957 2951 2945 2941 2938 2935 2933 2932 2931 2928 2927 2929 2932 2936 2940 2943 2946 2952 2956 2962 2965 2970
3112 3109 3106 3103 3100 3096 3090 3086 3080 3072 3065 3057 3050 3040 3029 3015 3003 2992 2982 2972 2964 2957 2951 2946 2942 2938 2935 2932 2930 2928 2928 2927 2928 2930 2933 2937 2941 2944 2946 2950 2955 2961 2964 2969
3108 3103 3099 3098 3094 3088 3086 3080 3073 3065 3059 3052 3043 3032 3020 3006 2995 2985 2975 2967 2960 2953 2948 2943 2938 2934 2930 2926 2925 2924 2925 2926 2928 2931 2934 2937 2940 2943 2947 2949 2955 2960 2962 2967
3103 3100 3097 3092 3089 3084 3079 3073 3067 3061 3054 3044 3034 3021 3011 3000 2989 2980 2971 2964 2957 2951 2946 2940 2936 2930 2925 2921 2919 2919 2919 2922 2926 2931 2933 2936 2939 2942 2945 2948 2954 2958 2962 2966